Other Public Products
Issued by NWS Charleston, SC

Current Version | Previous Version | Graphics & Text | Print | Product List | Glossary On
Versions: 1 2 3 4 5 6 7 8 9 10 11 12 13 14 15 16 17 18 19 20 21 22 23 24 25 26 27 28 29 30 31 32 33 34 35 36 37 38 39 40 41 42 43 44 45 46 47 48 49 50
000 FPUS82 KCHS 191727 OPUCHS TEST...KCHS/KSAV Gateway Observations...TEST National Weather Service Charleston SC 1200 PM EST THU JAN 19 2017 NOTE: "fair" indicates few or no clouds below 12,000 feet with no significant weather and/or obstructions to visibility. SCZ050-WAZ558-NCZ071-TXZ119-213-PAZ071-DCZ001-FLZ074-172-MI076- NYZ176-178-MAZ016-IL014-TNZ027-NJZ106-GAZ044-MD014-191800- ...Gateway Observations for Charleston International... CITY SKY/WX TMP DP RH WIND PRES REMARKS Chas Airport CLOUDY 68 53 58 E7 30.04F Seattle MOCLDY 47 39 74 S10 29.50S Charlotte CLOUDY 58 37 45 CALM 30.10F Dallas DFW PTSUNNY 56 50 80 S15 29.79F Dallas Love CLOUDY 53 48 83 S8 29.83F Philladelphia PTSUNNY 48 35 60 NW10 30.05F Wash National CLOUDY 50 37 61 VRB3 30.08F Baltimore PTSUNNY 48 36 63 W7 30.07F Miami MOSUNNY 81 61 50 W7 30.07F Detroit CLOUDY 36 31 82 SW5 30.06F WCI 32 Newark MOSUNNY 49 36 61 NW14G23 30.02F Laguardia MOSUNNY 49 35 58 NW9 30.01F J F K MOSUNNY 49 33 54 N9 30.02F Boston Logan MOSUNNY 43 35 73 W12 29.97F Ft. Lauderdale MOSUNNY 79 60 52 SE7 30.06F Chicago O`Hare CLOUDY 38 35 89 SE7 29.95F FOG WCI 33 Chicago Midway CLOUDY 38 34 85 E5 29.96F FOG WCI 34 Houston Bush RAIN 58 56 93 S8 29.90S FOG Houston Hobby LGT RAIN 59 58 96 CALM 29.91R Nashville LGT RAIN 53 50 89 SE7 29.95F FOG Atlanta MOSUNNY 70 56 61 SW3 30.03F $$ GAZ044-118-TXZ119-213-NCZ071-DCZ001-MDZ014-506-PAZ021-071-NJZ106- NYZ176-178-MAZ106-OHZ011-021-055-MIZ076-KYZ091-ILZ014-INZ047- MNZ060-191800- ...Gateway Observations for Savannah International... CITY SKY/WX TMP DP RH WIND PRES REMARKS Savannah Arpt CLOUDY 73 49 42 NW5 30.05F Atlanta MOSUNNY 70 56 61 SW3 30.03F Charlotte CLOUDY 58 37 45 CALM 30.10F Dallas DFW PTSUNNY 56 50 80 S15 29.79F Houston Bush RAIN 58 56 93 S8 29.90S FOG Wash National CLOUDY 50 37 61 VRB3 30.08F Wash Dulles CLOUDY 49 36 61 NW7 30.08F Baltimore PTSUNNY 48 36 63 W7 30.07F Philadelphia PTSUNNY 48 35 60 NW10 30.05F Newark MOSUNNY 49 36 61 NW14G23 30.02F Laguardia MOSUNNY 49 35 58 NW9 30.01F J F K MOSUNNY 49 33 54 N9 30.02F Boston MOSUNNY 43 35 73 W12 29.97F Pittsburg CLOUDY 39 35 86 S6 30.05F WCI 35 Akron CLOUDY 39 34 82 S7 30.06F WCI 34 Cleveland CLOUDY 41 34 76 SW7 30.10F Cincinnati CLOUDY 45 39 79 E7 30.00F Columbus N/A 40 37 88 E3 30.04F Detroit CLOUDY 36 31 82 SW5 30.06F WCI 32 Chicago O`Hare CLOUDY 38 35 89 SE7 29.95F FOG WCI 33 Minneapolis MOSUNNY 36 31 82 SE10 29.81S WCI 28 Indianapolis CLOUDY 44 38 79 SE13 29.99F $$

USA.gov is the U.S. government's official web portal to all federal, state and local government web resources and services.